Piney Island, NC

7:46 AM EDT on May 25, 2018 (GMT -0400)
Piney Island

Weather History for KNBT - December, 2012

Change the Weather History Date:

Tuesday, December 4, 2012

  Actual Average (KMRH) Record (KMRH)
Temperature  
Mean Temperature 64 °F -  
Max Temperature 73 °F 61 °F 76 °F (1982)
Min Temperature 55 °F 40 °F 23 °F (1989)
Degree Days  
Heating Degree Days 1    
Growing Degree Days 14 (Base 50)    
Moisture  
Dew Point 57 °F    
Average Humidity 83    
Maximum Humidity 97    
Minimum Humidity 59    
Precipitation  
Precipitation 0.01 in - - ()
Sea Level Pressure  
Sea Level Pressure 30.29 in    
Wind  
Wind Speed 6 mph (SW)    
Max Wind Speed 13 mph    
Max Gust Speed -    
Visibility 10 miles    
Events      
Averages and records for this station are not official NWS values.
T = Trace of Precipitation, MM = Missing Value Source: NWS Daily Summary

Daily Weather History Graph

Daily Weather History Graph

Search for Another Location

Airport or City:

Astronomy

Dec. 04, 2012 Rise Set
Actual Time 6:58 AM EST 4:53 PM EST
Civil Twilight 6:30 AM EST 5:21 PM EST
Nautical Twilight 5:59 AM EST 5:53 PM EST
Astronomical Twilight 5:28 AM EST 6:23 PM EST
Moon 10:30 PM EST (12/4) 10:59 AM EST (12/4)
Length of Visible Light 10h 51m
Length of Day
9h 55m
Waning Gibbous, 69% of the Moon is Illuminated
Dec 4
Waning Gibbous
Dec 6
Last Quarter
Dec 13
New
Dec 20
First Quarter
Dec 28
Full

Hourly Weather History & Observations

Time (EST) Temp. Dew Point Humidity Pressure Visibility Wind Dir Wind Speed Gust Speed Precip Events Conditions
12:56 AM 57.9 °F 55.0 °F 90% 30.30 in 10.0 mi SW 5.8 mph - N/A   Clear
1:56 AM 55.9 °F 54.0 °F 93% 30.31 in 10.0 mi SSW 6.9 mph - N/A   Clear
2:56 AM 57.0 °F 55.0 °F 93% 30.30 in 10.0 mi SW 4.6 mph - N/A   Clear
3:56 AM 57.0 °F 55.9 °F 96% 30.30 in 10.0 mi WSW 4.6 mph - N/A   Clear
4:56 AM 55.9 °F 55.0 °F 97% 30.30 in 10.0 mi SW 4.6 mph - 0.01 in   Clear
5:56 AM 57.0 °F 55.0 °F 93% 30.31 in 10.0 mi WSW 5.8 mph - N/A   Clear
6:56 AM 55.0 °F 54.0 °F 96% 30.33 in 8.0 mi SW 4.6 mph - N/A   Clear
7:56 AM 55.9 °F 55.0 °F 97% 30.34 in 6.0 mi Calm Calm - N/A   Clear
8:56 AM 63.0 °F 57.9 °F 84% 30.35 in 10.0 mi West 6.9 mph - N/A   Clear
9:56 AM 64.9 °F 59.0 °F 81% 30.36 in 10.0 mi West 6.9 mph - N/A   Clear
10:56 AM 69.1 °F 59.0 °F 70% 30.35 in 10.0 mi West 6.9 mph - N/A   Clear
11:56 AM 73.0 °F 57.9 °F 59% 30.32 in 10.0 mi West 8.1 mph - N/A   Partly Cloudy
12:56 PM 73.0 °F 57.9 °F 59% 30.29 in 9.0 mi West 12.7 mph - N/A   Partly Cloudy
1:56 PM 72.0 °F 60.1 °F 66% 30.26 in 10.0 mi SE 5.8 mph - N/A   Clear
2:56 PM 73.9 °F 60.1 °F 62% 30.26 in 10.0 mi SW 10.4 mph - N/A   Mostly Cloudy
3:56 PM 72.0 °F 59.0 °F 64% 30.26 in 10.0 mi SSW 9.2 mph - N/A   Clear
4:56 PM 66.9 °F 57.9 °F 73% 30.26 in 10.0 mi South 5.8 mph - N/A   Clear
5:56 PM 62.1 °F 57.0 °F 84% 30.26 in 10.0 mi South 6.9 mph - N/A   Clear
6:56 PM 60.1 °F 55.9 °F 86% 30.26 in 10.0 mi South 5.8 mph - N/A   Clear
7:56 PM 60.1 °F 55.9 °F 86% 30.27 in 10.0 mi SW 5.8 mph - N/A   Clear
8:56 PM 60.1 °F 57.0 °F 90% 30.26 in 10.0 mi South 6.9 mph - N/A   Scattered Clouds
9:56 PM 59.0 °F 57.0 °F 93% 30.25 in 10.0 mi South 5.8 mph - N/A   Mostly Cloudy
10:56 PM 60.1 °F 57.9 °F 93% 30.24 in 10.0 mi SSW 4.6 mph - N/A   Mostly Cloudy
11:56 PM 60.1 °F 57.9 °F 93% 30.23 in 10.0 mi SSW 4.6 mph - N/A   Clear